Location: Unspecified
(43.3830°N, 0.0000°E)
Time: 03:20:59
(UTC+00:00)

Explorer 7 - Pass Details

Date: 28 June 2019
Orbit: 485 x 680 km, 50.3° (Epoch: 23 July)

Event Time Altitude Azimuth Distance (km) Brightness Sun altitude
Rises 12:31:18 0° 297° (WNW) 2,902 10.5 69.1°
Reaches altitude 10° 12:33:37 10° 293° (WNW) 2,021 9.8 68.9°
Maximum altitude 12:38:09 53° 217° (SW) 803 9.5 68.6°
Drops below altitude 10° 12:42:53 10° 141° (SE) 2,094 10.1 68.3°
Sets 12:45:18 0° 137° (SE) 3,016 10.7 68.1°
